Weather History for KLVN - October, 2014

Change the Weather History Date:

Tuesday, October 28, 2014

  Actual Average Record
Temperature  
Mean Temperature 42 °F -  
Max Temperature 46 °F 52 °F 76 °F (1948)
Min Temperature 37 °F 33 °F 17 °F (1967)
Degree Days  
Heating Degree Days 24    
Moisture  
Dew Point 36 °F    
Average Humidity 82    
Maximum Humidity 100    
Minimum Humidity 70    
Precipitation  
Precipitation 0.00 in - - ()
Sea Level Pressure  
Sea Level Pressure 29.82 in    
Wind  
Wind Speed 10 mph (West)    
Max Wind Speed 23 mph    
Max Gust Speed 33 mph    
Visibility 10 miles    
Events Rain    
Averages and records for this station are not official NWS values.
T = Trace of Precipitation, MM = Missing Value Source: NWS Daily Summary

Daily Weather History Graph

Daily Weather History Graph

Search for Another Location

Airport or City:

Trip Planner

Search our weather history database for the weather conditions in past years. The results will help you decide how hot, cold, wet, or windy it might be!

Date:

Astronomy

Oct. 28, 2014 Rise Set
Actual Time 7:45 AM CDT 6:07 PM CDT
Civil Twilight 7:15 AM CDT 6:37 PM CDT
Nautical Twilight 6:40 AM CDT 7:11 PM CDT
Astronomical Twilight 6:07 AM CDT 7:45 PM CDT
Moon 12:19 PM CDT (10/28) 10:09 PM CDT (10/28)
Length of Visible Light 11h 22m
Length of Day
10h 22m
Waxing Crescent, 24% of the Moon is Illuminated
Oct 28
Waxing Crescent
Oct 30
First Quarter
Nov 6
Full
Nov 14
Last Quarter
Nov 22
New

Hourly Weather History & Observations

Time (CDT) Temp. Windchill Dew Point Humidity Pressure Visibility Wind Dir Wind Speed Gust Speed Precip Events Conditions
12:08 AM 42.8 °F 40.1 °F 39.2 °F 87% 29.72 in 10.0 mi WSW 4.6 mph - N/A   Clear
12:28 AM 41.0 °F 38.0 °F 39.2 °F 93% 29.72 in 10.0 mi WSW 4.6 mph - N/A   Clear
12:48 AM 41.0 °F 38.0 °F 39.2 °F 93% 29.72 in 10.0 mi WSW 4.6 mph - N/A   Clear
1:08 AM 41.0 °F 38.0 °F 39.2 °F 93% 29.73 in 10.0 mi WSW 4.6 mph - N/A   Clear
1:28 AM 39.2 °F 34.2 °F 39.2 °F 100% 29.73 in 10.0 mi WSW 6.9 mph - N/A   Clear
1:48 AM 39.2 °F 34.2 °F 39.2 °F 100% 29.73 in 10.0 mi WSW 6.9 mph - N/A   Clear
2:08 AM 39.2 °F 33.6 °F 39.2 °F 100% 29.72 in 10.0 mi WSW 8.1 mph - N/A   Clear
2:27 AM 39.2 °F 33.6 °F 39.2 °F 100% 29.72 in 10.0 mi WSW 8.1 mph - N/A   Clear
2:48 AM 39.2 °F 33.6 °F 37.4 °F 93% 29.73 in 10.0 mi WSW 8.1 mph - N/A   Scattered Clouds
3:08 AM 41.0 °F 35.2 °F 37.4 °F 87% 29.72 in 10.0 mi WSW 9.2 mph - N/A   Mostly Cloudy
3:28 AM 41.0 °F 34.3 °F 35.6 °F 81% 29.72 in 10.0 mi West 11.5 mph 18.4 mph N/A   Mostly Cloudy
3:48 AM 41.0 °F 34.3 °F 35.6 °F 81% 29.72 in 10.0 mi West 11.5 mph - N/A   Scattered Clouds
4:08 AM 41.0 °F 34.3 °F 35.6 °F 81% 29.72 in 10.0 mi West 11.5 mph 20.7 mph N/A   Scattered Clouds
4:28 AM 39.2 °F 32.0 °F 33.8 °F 81% 29.72 in 10.0 mi West 11.5 mph 18.4 mph N/A   Clear
4:48 AM 39.2 °F 33.0 °F 33.8 °F 81% 29.73 in 10.0 mi West 9.2 mph 18.4 mph N/A   Clear
5:08 AM 39.2 °F 32.5 °F 33.8 °F 81% 29.73 in 10.0 mi West 10.4 mph 17.3 mph N/A   Clear
5:28 AM 37.4 °F 29.8 °F 33.8 °F 87% 29.74 in 10.0 mi West 11.5 mph 16.1 mph N/A   Clear
5:48 AM 37.4 °F 30.3 °F 33.8 °F 87% 29.74 in 10.0 mi West 10.4 mph 17.3 mph N/A   Clear
6:08 AM 37.4 °F 32.1 °F 33.8 °F 87% 29.74 in 10.0 mi WSW 6.9 mph - N/A   Clear
6:28 AM 37.4 °F 32.1 °F 33.8 °F 87% 29.74 in 10.0 mi WSW 6.9 mph - N/A   Scattered Clouds
6:48 AM 37.4 °F 30.8 °F 33.8 °F 87% 29.74 in 10.0 mi West 9.2 mph - N/A   Mostly Cloudy
7:08 AM 39.2 °F 33.0 °F 33.8 °F 81% 29.74 in 10.0 mi WSW 9.2 mph - N/A   Overcast
7:28 AM 39.2 °F 32.5 °F 33.8 °F 81% 29.74 in 10.0 mi WSW 10.4 mph - N/A   Overcast
7:48 AM 39.2 °F 34.2 °F 33.8 °F 81% 29.75 in 10.0 mi WSW 6.9 mph 17.3 mph N/A   Overcast
8:08 AM 39.2 °F 35.0 °F 35.6 °F 87% 29.75 in 7.0 mi WSW 5.8 mph - N/A   Overcast
8:28 AM 39.2 °F 33.0 °F 35.6 °F 87% 29.76 in 10.0 mi WSW 9.2 mph - N/A   Overcast
8:48 AM 39.2 °F 33.0 °F 37.4 °F 93% 29.76 in 7.0 mi WSW 9.2 mph - N/A   Overcast
9:08 AM 39.2 °F 33.0 °F 37.4 °F 93% 29.76 in 10.0 mi WSW 9.2 mph - N/A   Overcast
9:28 AM 41.0 °F 35.2 °F 39.2 °F 93% 29.77 in 3.0 mi West 9.2 mph 19.6 mph N/A Rain Rain
9:48 AM 42.8 °F 38.0 °F 37.4 °F 81% 29.77 in 10.0 mi West 8.1 mph 17.3 mph N/A   Mostly Cloudy
10:08 AM 42.8 °F 36.2 °F 37.4 °F 81% 29.78 in 10.0 mi West 12.7 mph 19.6 mph N/A   Overcast
10:28 AM 42.8 °F 37.0 °F 37.4 °F 81% 29.78 in 10.0 mi West 10.4 mph 17.3 mph N/A   Overcast
10:48 AM 42.8 °F 36.6 °F 39.2 °F 87% 29.79 in 5.0 mi West 11.5 mph 18.4 mph N/A   Overcast
11:08 AM 42.8 °F 36.6 °F 39.2 °F 87% 29.79 in 4.0 mi West 11.5 mph 19.6 mph N/A   Overcast
11:28 AM 41.0 °F 34.3 °F 39.2 °F 93% 29.80 in 2.5 mi West 11.5 mph 19.6 mph N/A Rain Light Rain
11:47 AM 42.8 °F 37.5 °F 39.2 °F 87% 29.81 in 7.0 mi West 9.2 mph 17.3 mph N/A   Overcast
12:08 PM 42.8 °F 35.8 °F 39.2 °F 87% 29.81 in 10.0 mi West 13.8 mph - N/A   Overcast
12:28 PM 44.6 °F 38.8 °F 39.2 °F 81% 29.82 in 10.0 mi West 11.5 mph 17.3 mph N/A   Overcast
12:48 PM 44.6 °F 39.2 °F 39.2 °F 81% 29.82 in 10.0 mi West 10.4 mph 19.6 mph N/A   Overcast
1:08 PM 44.6 °F 37.2 °F 39.2 °F 81% 29.82 in 10.0 mi West 17.3 mph 24.2 mph N/A   Overcast
1:27 PM 44.6 °F 37.4 °F 39.2 °F 81% 29.82 in 10.0 mi West 16.1 mph 21.9 mph N/A   Overcast
1:48 PM 46.4 °F 39.2 °F 37.4 °F 71% 29.82 in 10.0 mi WNW 18.4 mph 27.6 mph N/A   Overcast
2:08 PM 46.4 °F 39.8 °F 37.4 °F 71% 29.82 in 10.0 mi West 16.1 mph 28.8 mph N/A   Overcast
2:28 PM 44.6 °F 37.4 °F 35.6 °F 71% 29.83 in 10.0 mi West 16.1 mph 24.2 mph N/A   Overcast
2:48 PM 44.6 °F 36.9 °F 37.4 °F 76% 29.84 in 10.0 mi West 18.4 mph 25.3 mph N/A   Overcast
3:08 PM 44.6 °F 37.4 °F 37.4 °F 76% 29.84 in 10.0 mi West 16.1 mph 25.3 mph N/A   Overcast
3:28 PM 44.6 °F 38.4 °F 37.4 °F 76% 29.85 in 10.0 mi West 12.7 mph 20.7 mph N/A   Overcast
3:48 PM 42.8 °F 34.0 °F 37.4 °F 81% 29.86 in 10.0 mi West 20.7 mph 26.5 mph N/A   Overcast
4:08 PM 42.8 °F 34.0 °F 35.6 °F 76% 29.87 in 10.0 mi West 20.7 mph 27.6 mph N/A   Overcast
4:28 PM 42.8 °F 33.8 °F 35.6 °F 76% 29.88 in 10.0 mi West 21.9 mph 29.9 mph N/A   Overcast
4:48 PM 42.8 °F 37.0 °F 35.6 °F 76% 29.89 in 10.0 mi West 10.4 mph 33.4 mph N/A   Overcast
5:08 PM 41.0 °F 31.1 °F 33.8 °F 76% 29.89 in 10.0 mi West 23.0 mph 32.2 mph N/A   Overcast
5:28 PM 41.0 °F 33.5 °F 33.8 °F 76% 29.90 in 10.0 mi West 13.8 mph 24.2 mph N/A   Overcast
5:48 PM 41.0 °F 33.1 °F 33.8 °F 76% 29.91 in 10.0 mi West 15.0 mph 24.2 mph N/A   Overcast
6:08 PM 41.0 °F 34.3 °F 33.8 °F 76% 29.92 in 10.0 mi West 11.5 mph 24.2 mph N/A   Overcast
6:28 PM 39.2 °F 30.2 °F 33.8 °F 81% 29.93 in 10.0 mi West 17.3 mph 24.2 mph N/A   Overcast
6:48 PM 39.2 °F 30.8 °F 33.8 °F 81% 29.93 in 10.0 mi West 15.0 mph 28.8 mph N/A   Overcast
7:08 PM 39.2 °F 30.8 °F 33.8 °F 81% 29.94 in 10.0 mi West 15.0 mph 19.6 mph N/A   Overcast
7:27 PM 39.2 °F 31.6 °F 33.8 °F 81% 29.94 in 10.0 mi West 12.7 mph 18.4 mph N/A   Drizzle
7:48 PM 39.2 °F 30.5 °F 33.8 °F 81% 29.94 in 10.0 mi West 16.1 mph 20.7 mph N/A   Overcast
8:08 PM 39.2 °F 30.2 °F 33.8 °F 81% 29.95 in 10.0 mi West 17.3 mph 26.5 mph N/A   Overcast
8:28 PM 39.2 °F 30.5 °F 32.0 °F 75% 29.95 in 10.0 mi West 16.1 mph 28.8 mph N/A   Overcast
8:48 PM 39.2 °F 31.2 °F 32.0 °F 75% 29.95 in 10.0 mi West 13.8 mph 23.0 mph N/A   Overcast
9:07 PM 39.2 °F 32.0 °F 33.8 °F 81% 29.96 in 10.0 mi West 11.5 mph 16.1 mph N/A   Overcast
9:28 PM 39.2 °F 30.5 °F 33.8 °F 81% 29.96 in 10.0 mi West 16.1 mph 20.7 mph N/A   Overcast
9:48 PM 39.2 °F 32.0 °F 32.0 °F 75% 29.96 in 10.0 mi West 11.5 mph 17.3 mph N/A   Overcast
10:07 PM 39.2 °F 31.6 °F 32.0 °F 75% 29.97 in 10.0 mi West 12.7 mph 17.3 mph N/A   Overcast
10:28 PM 39.2 °F 31.6 °F 30.2 °F 70% 29.97 in 10.0 mi WNW 12.7 mph 17.3 mph N/A   Overcast
10:48 PM 39.2 °F 31.2 °F 30.2 °F 70% 29.97 in 10.0 mi WNW 13.8 mph 21.9 mph N/A   Overcast
11:07 PM 39.2 °F 30.8 °F 30.2 °F 70% 29.97 in 10.0 mi WNW 15.0 mph 24.2 mph N/A   Overcast
11:28 PM 39.2 °F 31.6 °F 30.2 °F 70% 29.97 in 10.0 mi West 12.7 mph 16.1 mph N/A   Overcast
11:48 PM 39.2 °F 31.2 °F 30.2 °F 70% 29.98 in 10.0 mi WNW 13.8 mph 20.7 mph N/A   Overcast